Location: Sternwarte_Laufen
(47.9344°N, 12.9346°E)
Time: 01:30:59
(UTC+02:00)

ISS - Pass Details

Date: 17 July 2018
Orbit: 402 x 408 km, 51.6° (Epoch: 22 July)

Event Time Altitude Azimuth Distance (km) Brightness Sun altitude
Exits shadow 00:08:28 13° 77° (ENE) 1,314 -1.3 -19.2°
Drops below altitude 10° 00:08:52 10° 75° (ENE) 1,469 -1.0 -19.3°
Sets 00:11:01 0° 68° (ENE) 2,334 0.1 -19.4°
